Find Local Weather

World > North America > United States > Texas

Plano, Texas Regional Weather

Lat: 33.05N, Lon: 96.75W
Wx Zone: TXZ104
Warning FLW WEATHER ALERT - (More Info. Click Here) Warning
Feedback
Expires:201812191400;;027874
ASUS44 KFWD 191315
RWRTX 
NORTH TEXAS HOURLY WEATHER ROUNDUP
NATIONAL WEATHER SERVICE FORT WORTH TX
700 AM CST WED DEC 19 2018

NOTE: "FAIR" INDICATES FEW OR NO CLOUDS BELOW 12,000 FEET WITH NO
SIGNIFICANT WEATHER AND/OR OBSTRUCTIONS TO VISIBILITY.


TXZ091>094-102>105-117-120-121-131>134-191400-
NORTH CENTRAL TEXAS
  
CITY           SKY/WX    TMP DP  RH WIND       PRES   REMARKS
SHRMAN/DENISON CLOUDY    50  49  97 SE7       29.91S FOG              
GAINESVILLE    FOG       49  49  97 SW6       29.91S VSB 3/4          
BOWIE          CLOUDY    51  49  96 SE8       29.87S FOG              
BRIDGEPORT     CLOUDY    52  50  92 S5        29.90S                  
DECATUR        CLOUDY    52  50  93 CALM      29.88F                  
DENTON         FOG       51  50  96 SE5       29.89F VSB 3/4          
MCKINNEY       FOG       51  51 100 S7        29.91S VSB 1/4          
BONHAM         FOG       46 N/A N/A SE9       29.92F VSB<1/4          
GREENVILLE     CLOUDY    54  54 100 CALM      29.93S FOG              
ROCKWALL       FOG       55  55 100 SE5       29.92S VSB 1/4          
TERRELL        CLOUDY    53  50  89 S6        29.92F                  
WAXAHACHIE     FOG       51  51 100 CALM      29.92S VSB 1/2          
CLEBURNE       FOG       52  52 100 SE6       29.90F VSB<1/4          
GRANBURY       CLOUDY    54  52  92 SE3       29.89F FOG              
$$


SKY/WX - Weather  TMP - Temperature  DP - Dew Point  RH - Relative Humidity
WIND - Wind Direction/Speed PRES - Barometric Pressure